Погода в Новинке

Россия / Санкт-Петербург и Ленинградская область     59°11′07″N   30°22′19″E
темп.,
°C
ветер,
м/с
пор.,
м/с
влажн.,
%
обл.,
%
осадки,
мм/ч
давл.,
гПа
погр.,
м
27 июля, вт
вт2700:00+18ююз11637 0.0 102014
03:00+16ююз22695 0.0 102112
06:00+17ююз22700 0.0 102037
09:00+24ююв22463 0.0 1019389
12:00+28юв33335 0.0 10192125
15:00+29юв332997 0.0 10172536
18:00+28ююв3332100 0.0 10152328
21:00+22ююв1254100 0.0 101511
28 июля, ср
ср2800:00+19вюв2259100 0.0 101419
03:00+18вюв2463100 0.0 101379
06:00+18юв2576100 0.0 1012135
09:00+19ю1487100 0.8 1011208
12:00+19вюв2591100 0.4 1010237
15:00+24ююв465979 0.4 10081321
18:00+21ююз3582100 0.8 1007500
21:00+19юз2494100 2.5 100681
29 июля, чт
чт2900:00+17зюз239623 0.1 100661
03:00+16зюз23975 0.1 100569
06:00+16зюз289788 0.0 1005205
09:00+20зюз3683100 0.0 1004495
12:00+23зюз4757100 0.0 10041284
15:00+22зюз59754 1.5 10031172
18:00+23з595915 1.1 10021559
21:00+20зюз38665 1.2 1002345
30 июля, пт
пт3000:00+17юз3127875 0.0 1002392
03:00+17юз41281100 0.0 1002666
06:00+16юз4118663 0.0 1002620
09:00+20зюз596251 0.0 10021189
12:00+23юз6103975 0.1 10012450
15:00+24зюз693268 0.1 10013078
18:00+22зюз4104271 0.0 10011939
21:00+17ююз226289 0.0 100030
31 июля, сб
сб3100:00+16ю386740 0.0 999174
03:00+15ю27678 0.0 998173
06:00+15ююз4126667 0.0 997699
09:00+17ююз61467100 0.2 9951303
12:00+17юз7138528 1.3 9961006
15:00+21з610570 2.5 9971411
18:00+23зюз575012 0.0 9981727
21:00+17зюз38844 0.3 1000348